contact:dominique.lefevre@mio.osupytheas.fr, maurice.libes@osupytheas.fr, didier.mallarino@osupytheas.fr
Project:EMSO http://www.emso-fr.org/EMSO-France
Depth: 2436.0 m
Title:EMSO Ligure Ouest : Data MII capteur OXYGEN
DateTime,Latitude,Longitude,Optode-Type,Optode_Serial,Oxygen,Saturation_Oxygen,Temperature
DateTime,Latitude,Longitude,Optode-Type,Optode_Serial,µmol.l-1,%,degC
2019-06-25T00:00:53,42.805,6.029,4330,1995,191.641,58.615,13.294
2019-06-25T00:03:53,42.805,6.029,4330,1995,191.673,58.623,13.293
2019-06-25T00:06:53,42.805,6.029,4330,1995,191.609,58.609,13.297
2019-06-25T00:09:53,42.805,6.029,4330,1995,191.683,58.627,13.294
2019-06-25T00:12:53,42.805,6.029,4330,1995,191.759,58.650,13.294
2019-06-25T00:15:53,42.805,6.029,4330,1995,191.709,58.634,13.293
2019-06-25T00:18:53,42.805,6.029,4330,1995,191.770,58.651,13.292
2019-06-25T00:21:53,42.805,6.029,4330,1995,191.960,58.711,13.294
2019-06-25T00:24:53,42.805,6.029,4330,1995,192.051,58.737,13.292
2019-06-25T00:27:53,42.805,6.029,4330,1995,192.033,58.733,13.294
2019-06-25T00:30:53,42.805,6.029,4330,1995,191.958,58.709,13.292
2019-06-25T00:33:53,42.805,6.029,4330,1995,191.956,58.715,13.297
2019-06-25T00:36:53,42.805,6.029,4330,1995,191.974,58.718,13.295
2019-06-25T00:39:53,42.805,6.029,4330,1995,191.885,58.692,13.296
2019-06-25T00:42:53,42.805,6.029,4330,1995,191.947,58.708,13.294
2019-06-25T00:45:53,42.805,6.029,4330,1995,192.064,58.742,13.292
2019-06-25T00:48:53,42.805,6.029,4330,1995,191.891,58.690,13.294
2019-06-25T00:51:53,42.805,6.029,4330,1995,191.944,58.706,13.293
2019-06-25T00:54:53,42.805,6.029,4330,1995,192.170,58.777,13.294
2019-06-25T00:57:53,42.805,6.029,4330,1995,192.040,58.738,13.296
2019-06-25T01:00:53,42.805,6.029,4330,1995,192.156,58.771,13.293
2019-06-25T01:03:53,42.805,6.029,4330,1995,192.218,58.795,13.297
2019-06-25T01:06:53,42.805,6.029,4330,1995,192.313,58.822,13.296
2019-06-25T01:09:53,42.805,6.029,4330,1995,192.267,58.806,13.294
2019-06-25T01:12:53,42.805,6.029,4330,1995,192.158,58.771,13.293
2019-06-25T01:15:53,42.805,6.029,4330,1995,192.247,58.799,13.294
2019-06-25T01:18:53,42.805,6.029,4330,1995,192.312,58.817,13.292
2019-06-25T01:27:53,42.805,6.029,4330,1995,192.314,58.813,13.288
2019-06-25T01:30:53,42.805,6.029,4330,1995,192.505,58.874,13.291
2019-06-25T01:33:53,42.805,6.029,4330,1995,192.391,58.841,13.292
2019-06-25T01:36:53,42.805,6.029,4330,1995,192.206,58.784,13.291
2019-06-25T01:39:53,42.805,6.029,4330,1995,192.115,58.757,13.292
2019-06-25T01:42:53,42.805,6.029,4330,1995,192.117,58.757,13.292
2019-06-25T01:45:53,42.805,6.029,4330,1995,192.327,58.822,13.292
2019-06-25T01:48:53,42.805,6.029,4330,1995,192.339,58.826,13.292
2019-06-25T01:51:53,42.805,6.029,4330,1995,192.364,58.833,13.292
2019-06-25T01:54:53,42.805,6.029,4330,1995,192.272,58.806,13.293
2019-06-25T01:57:53,42.805,6.029,4330,1995,192.201,58.783,13.292
2019-06-25T02:00:53,42.805,6.029,4330,1995,192.107,58.757,13.294
2019-06-25T02:03:53,42.805,6.029,4330,1995,192.196,58.783,13.293
2019-06-25T02:06:53,42.805,6.029,4330,1995,192.237,58.795,13.293
2019-06-25T02:09:53,42.805,6.029,4330,1995,192.293,58.812,13.292
2019-06-25T02:12:53,42.805,6.029,4330,1995,192.456,58.862,13.292
2019-06-25T02:15:53,42.805,6.029,4330,1995,192.457,58.861,13.292
2019-06-25T02:18:53,42.805,6.029,4330,1995,192.594,58.904,13.293
2019-06-25T02:21:53,42.805,6.029,4330,1995,192.524,58.884,13.294
2019-06-25T02:24:53,42.805,6.029,4330,1995,192.538,58.886,13.292
2019-06-25T02:27:53,42.805,6.029,4330,1995,192.537,58.887,13.293
2019-06-25T02:30:53,42.805,6.029,4330,1995,192.532,58.885,13.293
2019-06-25T02:33:53,42.805,6.029,4330,1995,192.474,58.866,13.292
2019-06-25T02:36:53,42.805,6.029,4330,1995,192.515,58.879,13.292
2019-06-25T02:39:53,42.805,6.029,4330,1995,191.837,58.672,13.293
2019-06-25T02:42:53,42.805,6.029,4330,1995,192.181,58.777,13.292
2019-06-25T02:45:53,42.805,6.029,4330,1995,192.385,58.838,13.291
2019-06-25T02:48:53,42.805,6.029,4330,1995,192.654,58.922,13.292
2019-06-25T02:51:53,42.805,6.029,4330,1995,192.718,58.940,13.291
2019-06-25T02:54:53,42.805,6.029,4330,1995,192.689,58.931,13.292
2019-06-25T02:57:53,42.805,6.029,4330,1995,192.741,58.946,13.290
2019-06-25T03:00:53,42.805,6.029,4330,1995,192.634,58.912,13.289
2019-06-25T03:03:53,42.805,6.029,4330,1995,192.696,58.931,13.289
2019-06-25T03:06:53,42.805,6.029,4330,1995,192.854,58.979,13.289
2019-06-25T03:09:53,42.805,6.029,4330,1995,192.795,58.961,13.290
2019-06-25T03:12:53,42.805,6.029,4330,1995,192.672,58.924,13.289
2019-06-25T03:15:53,42.805,6.029,4330,1995,192.780,58.956,13.289
2019-06-25T03:18:53,42.805,6.029,4330,1995,192.865,58.983,13.289
2019-06-25T03:21:53,42.805,6.029,4330,1995,192.869,58.983,13.289
2019-06-25T03:24:53,42.805,6.029,4330,1995,192.775,58.955,13.289
2019-06-25T03:27:53,42.805,6.029,4330,1995,192.644,58.915,13.289
2019-06-25T03:30:53,42.805,6.029,4330,1995,192.632,58.911,13.289
2019-06-25T03:33:53,42.805,6.029,4330,1995,192.593,58.899,13.289
2019-06-25T03:36:53,42.805,6.029,4330,1995,192.743,58.945,13.289
2019-06-25T03:39:53,42.805,6.029,4330,1995,192.781,58.957,13.290
2019-06-25T03:42:53,42.805,6.029,4330,1995,192.579,58.895,13.289
2019-06-25T03:45:53,42.805,6.029,4330,1995,192.667,58.921,13.289
2019-06-25T03:48:53,42.805,6.029,4330,1995,192.644,58.915,13.290
2019-06-25T03:51:53,42.805,6.029,4330,1995,192.637,58.914,13.290
2019-06-25T03:54:53,42.805,6.029,4330,1995,192.887,58.990,13.290
2019-06-25T04:00:53,42.805,6.029,4330,1995,192.888,58.989,13.289
2019-06-25T04:03:53,42.805,6.029,4330,1995,192.947,59.008,13.289
2019-06-25T04:06:53,42.805,6.029,4330,1995,192.849,58.977,13.289
2019-06-25T04:09:53,42.805,6.029,4330,1995,192.891,58.990,13.289
2019-06-25T04:12:53,42.805,6.029,4330,1995,192.817,58.967,13.289
2019-06-25T04:15:53,42.805,6.029,4330,1995,192.903,58.994,13.289
2019-06-25T04:18:53,42.805,6.029,4330,1995,192.904,58.994,13.289
2019-06-25T04:21:53,42.805,6.029,4330,1995,192.788,58.959,13.289
2019-06-25T04:24:53,42.805,6.029,4330,1995,192.741,58.944,13.289
2019-06-25T04:27:53,42.805,6.029,4330,1995,192.562,58.891,13.290
2019-06-25T04:30:53,42.805,6.029,4330,1995,192.436,58.852,13.290
2019-06-25T04:33:53,42.805,6.029,4330,1995,192.304,58.812,13.290
2019-06-25T04:36:53,42.805,6.029,4330,1995,192.305,58.812,13.290
2019-06-25T04:39:53,42.805,6.029,4330,1995,192.386,58.837,13.290
2019-06-25T04:42:53,42.805,6.029,4330,1995,192.456,58.859,13.290
2019-06-25T04:45:53,42.805,6.029,4330,1995,192.241,58.793,13.290
2019-06-25T04:48:53,42.805,6.029,4330,1995,192.220,58.787,13.291
2019-06-25T04:51:53,42.805,6.029,4330,1995,192.205,58.783,13.291
2019-06-25T04:54:53,42.805,6.029,4330,1995,192.310,58.815,13.291
2019-06-25T04:57:53,42.805,6.029,4330,1995,192.295,58.810,13.291
2019-06-25T05:00:53,42.805,6.029,4330,1995,192.264,58.801,13.291
2019-06-25T05:03:53,42.805,6.029,4330,1995,192.344,58.825,13.291
2019-06-25T05:06:53,42.805,6.029,4330,1995,192.319,58.818,13.291
2019-06-25T05:09:53,42.805,6.029,4330,1995,192.334,58.822,13.291
2019-06-25T05:12:53,42.805,6.029,4330,1995,192.372,58.834,13.291
2019-06-25T05:15:53,42.805,6.029,4330,1995,192.397,58.842,13.291
2019-06-25T05:18:53,42.805,6.029,4330,1995,192.389,58.840,13.292
2019-06-25T05:21:53,42.805,6.029,4330,1995,192.370,58.834,13.291
2019-06-25T05:24:53,42.805,6.029,4330,1995,192.335,58.823,13.292
2019-06-25T05:27:53,42.805,6.029,4330,1995,192.384,58.839,13.292
2019-06-25T05:30:53,42.805,6.029,4330,1995,192.413,58.847,13.292
2019-06-25T05:33:53,42.805,6.029,4330,1995,192.420,58.850,13.292
2019-06-25T05:36:52,42.805,6.029,4330,1995,192.382,58.838,13.292
2019-06-25T05:39:52,42.805,6.029,4330,1995,192.410,58.847,13.292
2019-06-25T05:42:52,42.805,6.029,4330,1995,192.328,58.822,13.292
2019-06-25T05:45:52,42.805,6.029,4330,1995,192.349,58.828,13.292
2019-06-25T05:48:52,42.805,6.029,4330,1995,192.408,58.845,13.291
2019-06-25T05:51:52,42.805,6.029,4330,1995,192.353,58.830,13.292
2019-06-25T05:54:52,42.805,6.029,4330,1995,192.385,58.838,13.291
2019-06-25T05:57:52,42.805,6.029,4330,1995,192.332,58.821,13.291
2019-06-25T06:00:52,42.805,6.029,4330,1995,192.355,58.828,13.291
2019-06-25T06:03:52,42.805,6.029,4330,1995,192.406,58.844,13.291
2019-06-25T06:06:52,42.805,6.029,4330,1995,192.529,58.882,13.291
2019-06-25T06:09:52,42.805,6.029,4330,1995,192.506,58.874,13.290
2019-06-25T06:12:52,42.805,6.029,4330,1995,192.522,58.879,13.290
2019-06-25T06:15:52,42.805,6.029,4330,1995,192.416,58.846,13.290
2019-06-25T06:18:52,42.805,6.029,4330,1995,192.391,58.838,13.290
2019-06-25T06:21:52,42.805,6.029,4330,1995,192.428,58.849,13.290
2019-06-25T06:24:52,42.805,6.029,4330,1995,192.497,58.870,13.290
2019-06-25T06:27:52,42.805,6.029,4330,1995,192.504,58.873,13.290
2019-06-25T06:30:52,42.805,6.029,4330,1995,192.518,58.877,13.290
2019-06-25T06:36:52,42.805,6.029,4330,1995,192.464,58.862,13.291
2019-06-25T06:39:52,42.805,6.029,4330,1995,192.597,58.904,13.292
2019-06-25T06:42:52,42.805,6.029,4330,1995,192.473,58.866,13.292
2019-06-25T06:45:52,42.805,6.029,4330,1995,192.433,58.854,13.292
2019-06-25T06:48:52,42.805,6.029,4330,1995,192.373,58.835,13.292
2019-06-25T06:51:52,42.805,6.029,4330,1995,192.345,58.827,13.292
2019-06-25T06:54:52,42.805,6.029,4330,1995,192.300,58.813,13.292
2019-06-25T06:57:52,42.805,6.029,4330,1995,192.407,58.845,13.291
2019-06-25T07:00:52,42.805,6.029,4330,1995,192.469,58.864,13.291
2019-06-25T07:03:52,42.805,6.029,4330,1995,192.373,58.835,13.292
2019-06-25T07:06:52,42.805,6.029,4330,1995,192.412,58.847,13.291
2019-06-25T07:09:52,42.805,6.029,4330,1995,192.509,58.876,13.292
2019-06-25T07:12:52,42.805,6.029,4330,1995,192.415,58.847,13.291
2019-06-25T07:15:52,42.805,6.029,4330,1995,192.429,58.851,13.291
2019-06-25T07:18:52,42.805,6.029,4330,1995,192.431,58.851,13.290
2019-06-25T07:21:52,42.805,6.029,4330,1995,192.354,58.828,13.290
2019-06-25T07:24:52,42.805,6.029,4330,1995,192.351,58.827,13.290
2019-06-25T07:27:52,42.805,6.029,4330,1995,192.233,58.790,13.290
2019-06-25T07:30:52,42.805,6.029,4330,1995,192.385,58.836,13.290
2019-06-25T07:33:52,42.805,6.029,4330,1995,192.498,58.871,13.290
2019-06-25T07:36:52,42.805,6.029,4330,1995,192.505,58.873,13.290
2019-06-25T07:39:52,42.805,6.029,4330,1995,192.672,58.924,13.290
2019-06-25T07:42:52,42.805,6.029,4330,1995,192.539,58.883,13.289
2019-06-25T07:45:52,42.805,6.029,4330,1995,192.548,58.886,13.290
2019-06-25T07:48:52,42.805,6.029,4330,1995,192.507,58.873,13.289
2019-06-25T07:51:52,42.805,6.029,4330,1995,192.579,58.896,13.290
2019-06-25T07:54:52,42.805,6.029,4330,1995,192.690,58.930,13.290
2019-06-25T07:57:52,42.805,6.029,4330,1995,192.683,58.927,13.290
2019-06-25T08:00:52,42.805,6.029,4330,1995,192.606,58.904,13.290
2019-06-25T08:03:52,42.805,6.029,4330,1995,192.701,58.934,13.290
2019-06-25T08:06:52,42.805,6.029,4330,1995,192.644,58.916,13.290
2019-06-25T08:09:52,42.805,6.029,4330,1995,192.784,58.959,13.290
2019-06-25T08:12:52,42.805,6.029,4330,1995,192.651,58.919,13.290
2019-06-25T08:15:52,42.805,6.029,4330,1995,192.743,58.947,13.291
2019-06-25T08:18:52,42.805,6.029,4330,1995,192.689,58.930,13.290
2019-06-25T08:21:52,42.805,6.029,4330,1995,192.658,58.922,13.291
2019-06-25T08:24:52,42.805,6.029,4330,1995,192.823,58.972,13.291
2019-06-25T08:27:52,42.805,6.029,4330,1995,192.837,58.977,13.292
2019-06-25T08:30:52,42.805,6.029,4330,1995,192.898,58.996,13.292
2019-06-25T08:33:52,42.805,6.029,4330,1995,192.838,58.977,13.291
2019-06-25T08:36:52,42.805,6.029,4330,1995,192.727,58.943,13.291
2019-06-25T08:39:52,42.805,6.029,4330,1995,192.801,58.966,13.292
2019-06-25T08:42:52,42.805,6.029,4330,1995,192.827,58.974,13.292
2019-06-25T08:45:52,42.805,6.029,4330,1995,192.835,58.977,13.292
2019-06-25T08:48:52,42.805,6.029,4330,1995,192.696,58.935,13.292
2019-06-25T08:51:52,42.805,6.029,4330,1995,192.736,58.946,13.292
2019-06-25T08:54:52,42.805,6.029,4330,1995,192.723,58.942,13.292
2019-06-25T08:57:52,42.805,6.029,4330,1995,192.694,58.933,13.292
2019-06-25T09:00:52,42.805,6.029,4330,1995,192.709,58.938,13.292
2019-06-25T09:03:52,42.805,6.029,4330,1995,192.602,58.906,13.292
2019-06-25T09:12:52,42.805,6.029,4330,1995,192.562,58.888,13.288
2019-06-25T09:15:52,42.805,6.029,4330,1995,192.601,58.903,13.290
2019-06-25T09:18:52,42.805,6.029,4330,1995,192.543,58.885,13.290
2019-06-25T09:21:52,42.805,6.029,4330,1995,192.548,58.887,13.291
2019-06-25T09:24:52,42.805,6.029,4330,1995,192.650,58.918,13.290
2019-06-25T09:27:52,42.805,6.029,4330,1995,192.533,58.883,13.291
2019-06-25T09:30:52,42.805,6.029,4330,1995,192.431,58.852,13.291
2019-06-25T09:33:52,42.805,6.029,4330,1995,192.440,58.856,13.292
2019-06-25T09:36:52,42.805,6.029,4330,1995,192.427,58.850,13.291
2019-06-25T09:39:52,42.805,6.029,4330,1995,192.390,58.839,13.291
2019-06-25T09:42:52,42.805,6.029,4330,1995,192.580,58.898,13.291
2019-06-25T09:45:52,42.805,6.029,4330,1995,192.506,58.875,13.291
2019-06-25T09:48:52,42.805,6.029,4330,1995,192.438,58.854,13.291
2019-06-25T09:51:52,42.805,6.029,4330,1995,192.355,58.829,13.291
2019-06-25T09:54:52,42.805,6.029,4330,1995,192.571,58.894,13.291
2019-06-25T09:57:52,42.805,6.029,4330,1995,192.498,58.873,13.291
2019-06-25T10:00:52,42.805,6.029,4330,1995,192.530,58.884,13.292
2019-06-25T10:03:52,42.805,6.029,4330,1995,192.503,58.875,13.292
2019-06-25T10:06:52,42.805,6.029,4330,1995,192.276,58.806,13.292
2019-06-25T10:09:52,42.805,6.029,4330,1995,192.382,58.838,13.292
2019-06-25T10:12:52,42.805,6.029,4330,1995,192.411,58.847,13.292
2019-06-25T10:15:52,42.805,6.029,4330,1995,192.358,58.831,13.292
2019-06-25T10:18:52,42.805,6.029,4330,1995,192.328,58.820,13.291
2019-06-25T10:21:52,42.805,6.029,4330,1995,192.346,58.826,13.291
2019-06-25T10:24:52,42.805,6.029,4330,1995,192.539,58.887,13.293
2019-06-25T10:27:52,42.805,6.029,4330,1995,192.484,58.870,13.292
2019-06-25T10:30:52,42.805,6.029,4330,1995,192.468,58.864,13.291
2019-06-25T10:33:52,42.805,6.029,4330,1995,192.471,58.865,13.291
2019-06-25T10:36:52,42.805,6.029,4330,1995,192.530,58.882,13.291
2019-06-25T10:39:52,42.805,6.029,4330,1995,192.389,58.840,13.292
2019-06-25T10:42:52,42.805,6.029,4330,1995,192.494,58.871,13.291
2019-06-25T10:45:52,42.805,6.029,4330,1995,192.381,58.836,13.290
2019-06-25T10:48:52,42.805,6.029,4330,1995,192.359,58.829,13.290
2019-06-25T10:51:52,42.805,6.029,4330,1995,192.465,58.862,13.291
2019-06-25T10:54:52,42.805,6.029,4330,1995,192.435,58.853,13.291
2019-06-25T10:57:52,42.805,6.029,4330,1995,192.360,58.832,13.292
2019-06-25T11:00:52,42.805,6.029,4330,1995,192.193,58.780,13.292
2019-06-25T11:03:52,42.805,6.029,4330,1995,192.166,58.769,13.290
2019-06-25T11:06:52,42.805,6.029,4330,1995,192.222,58.787,13.291
2019-06-25T11:09:52,42.805,6.029,4330,1995,192.438,58.854,13.291
2019-06-25T11:12:52,42.805,6.029,4330,1995,192.330,58.823,13.292
2019-06-25T11:15:52,42.805,6.029,4330,1995,192.243,58.794,13.290
2019-06-25T11:18:52,42.805,6.029,4330,1995,192.321,58.820,13.292
2019-06-25T11:21:52,42.805,6.029,4330,1995,192.493,58.871,13.291
2019-06-25T11:24:52,42.805,6.029,4330,1995,192.562,58.890,13.290
2019-06-25T11:27:52,42.805,6.029,4330,1995,192.528,58.882,13.291
2019-06-25T11:30:52,42.805,6.029,4330,1995,192.431,58.850,13.290
2019-06-25T11:33:52,42.805,6.029,4330,1995,192.632,58.912,13.290
2019-06-25T11:36:52,42.805,6.029,4330,1995,192.480,58.869,13.292
2019-06-25T11:39:52,42.805,6.029,4330,1995,192.563,58.894,13.292
2019-06-25T11:45:52,42.805,6.029,4330,1995,192.439,58.851,13.288
2019-06-25T11:48:52,42.805,6.029,4330,1995,192.475,58.862,13.289
2019-06-25T11:51:52,42.805,6.029,4330,1995,192.498,58.872,13.290
2019-06-25T11:54:52,42.805,6.029,4330,1995,192.337,58.822,13.290
2019-06-25T11:57:52,42.805,6.029,4330,1995,192.465,58.861,13.290
2019-06-25T12:00:52,42.805,6.029,4330,1995,192.428,58.849,13.289
2019-06-25T12:03:52,42.805,6.029,4330,1995,192.430,58.850,13.289
2019-06-25T12:06:52,42.805,6.029,4330,1995,192.435,58.851,13.289
2019-06-25T12:09:52,42.805,6.029,4330,1995,192.337,58.822,13.290
2019-06-25T12:12:52,42.805,6.029,4330,1995,192.255,58.798,13.291
2019-06-25T12:15:52,42.805,6.029,4330,1995,192.406,58.843,13.290
2019-06-25T12:18:52,42.805,6.029,4330,1995,192.432,58.851,13.290
2019-06-25T12:21:52,42.805,6.029,4330,1995,192.365,58.832,13.291
2019-06-25T12:24:52,42.805,6.029,4330,1995,192.357,58.827,13.289
2019-06-25T12:27:52,42.805,6.029,4330,1995,192.439,58.854,13.291
2019-06-25T12:30:52,42.805,6.029,4330,1995,192.445,58.855,13.290
2019-06-25T12:33:52,42.805,6.029,4330,1995,192.550,58.888,13.291
2019-06-25T12:36:52,42.805,6.029,4330,1995,192.674,58.925,13.290
2019-06-25T12:39:52,42.805,6.029,4330,1995,192.561,58.890,13.290
2019-06-25T12:42:52,42.805,6.029,4330,1995,192.525,58.881,13.291
2019-06-25T12:45:52,42.805,6.029,4330,1995,192.590,58.900,13.290
2019-06-25T12:48:52,42.805,6.029,4330,1995,192.513,58.876,13.290
2019-06-25T12:51:52,42.805,6.029,4330,1995,192.455,58.859,13.291
2019-06-25T12:54:52,42.805,6.029,4330,1995,192.457,58.860,13.291
2019-06-25T12:57:52,42.805,6.029,4330,1995,192.371,58.833,13.290
2019-06-25T13:00:52,42.805,6.029,4330,1995,192.307,58.814,13.291
2019-06-25T13:03:52,42.805,6.029,4330,1995,192.417,58.848,13.291
2019-06-25T13:06:52,42.805,6.029,4330,1995,192.400,58.843,13.291
2019-06-25T13:09:52,42.805,6.029,4330,1995,192.620,58.909,13.290
2019-06-25T13:12:52,42.805,6.029,4330,1995,192.581,58.899,13.292
2019-06-25T13:15:52,42.805,6.029,4330,1995,192.670,58.925,13.291
2019-06-25T13:18:52,42.805,6.029,4330,1995,192.569,58.894,13.291
2019-06-25T13:21:52,42.805,6.029,4330,1995,192.588,58.903,13.293
2019-06-25T13:24:52,42.805,6.029,4330,1995,192.509,58.876,13.291
2019-06-25T13:27:52,42.805,6.029,4330,1995,192.345,58.827,13.292
2019-06-25T13:30:52,42.805,6.029,4330,1995,192.435,58.854,13.292
2019-06-25T13:33:52,42.805,6.029,4330,1995,192.475,58.865,13.291
2019-06-25T13:36:52,42.805,6.029,4330,1995,192.685,58.930,13.291
2019-06-25T13:39:52,42.805,6.029,4330,1995,192.533,58.884,13.291
2019-06-25T13:42:52,42.805,6.029,4330,1995,192.443,58.856,13.291
2019-06-25T13:45:52,42.805,6.029,4330,1995,192.591,58.900,13.290
2019-06-25T13:48:52,42.805,6.029,4330,1995,192.632,58.913,13.291
2019-06-25T13:51:52,42.805,6.029,4330,1995,192.552,58.889,13.291
2019-06-25T13:54:52,42.805,6.029,4330,1995,192.558,58.890,13.290
2019-06-25T13:57:52,42.805,6.029,4330,1995,192.664,58.921,13.289
2019-06-25T14:00:52,42.805,6.029,4330,1995,192.636,58.913,13.290
2019-06-25T14:03:52,42.805,6.029,4330,1995,192.512,58.875,13.290
2019-06-25T14:06:52,42.805,6.029,4330,1995,192.404,58.842,13.290
2019-06-25T14:09:52,42.805,6.029,4330,1995,192.668,58.922,13.289
2019-06-25T14:12:52,42.805,6.029,4330,1995,192.531,58.881,13.290
2019-06-25T14:15:52,42.805,6.029,4330,1995,192.430,58.852,13.291
2019-06-25T14:21:52,42.805,6.029,4330,1995,192.640,58.912,13.288
2019-06-25T14:24:52,42.805,6.029,4330,1995,192.459,58.860,13.290
2019-06-25T14:27:52,42.805,6.029,4330,1995,192.488,58.869,13.291
2019-06-25T14:30:52,42.805,6.029,4330,1995,192.718,58.941,13.292
2019-06-25T14:33:52,42.805,6.029,4330,1995,192.613,58.909,13.292
2019-06-25T14:36:52,42.805,6.029,4330,1995,192.556,58.894,13.294
2019-06-25T14:39:52,42.805,6.029,4330,1995,192.457,58.862,13.293
2019-06-25T14:42:52,42.805,6.029,4330,1995,192.348,58.830,13.294
2019-06-25T14:45:52,42.805,6.029,4330,1995,192.209,58.785,13.292
2019-06-25T14:48:52,42.805,6.029,4330,1995,192.200,58.784,13.293
2019-06-25T14:51:52,42.805,6.029,4330,1995,192.260,58.800,13.291
2019-06-25T14:54:52,42.805,6.029,4330,1995,192.245,58.796,13.291
2019-06-25T14:57:52,42.805,6.029,4330,1995,192.255,58.798,13.290
2019-06-25T15:00:52,42.805,6.029,4330,1995,192.269,58.802,13.291
2019-06-25T15:03:52,42.805,6.029,4330,1995,192.296,58.813,13.292
2019-06-25T15:06:52,42.805,6.029,4330,1995,192.301,58.812,13.291
2019-06-25T15:09:52,42.805,6.029,4330,1995,192.252,58.796,13.290
2019-06-25T15:12:52,42.805,6.029,4330,1995,192.415,58.846,13.290
2019-06-25T15:15:52,42.805,6.029,4330,1995,192.402,58.841,13.290
2019-06-25T15:18:52,42.805,6.029,4330,1995,192.337,58.822,13.290
2019-06-25T15:21:52,42.805,6.029,4330,1995,192.416,58.847,13.291
2019-06-25T15:24:52,42.805,6.029,4330,1995,192.500,58.873,13.291
2019-06-25T15:27:52,42.805,6.029,4330,1995,192.490,58.869,13.290
2019-06-25T15:30:52,42.805,6.029,4330,1995,192.614,58.907,13.290
2019-06-25T15:33:52,42.805,6.029,4330,1995,192.505,58.874,13.291
2019-06-25T15:36:52,42.805,6.029,4330,1995,192.505,58.874,13.291
2019-06-25T15:39:52,42.805,6.029,4330,1995,192.528,58.882,13.291
2019-06-25T15:42:52,42.805,6.029,4330,1995,192.486,58.868,13.291
2019-06-25T15:45:52,42.805,6.029,4330,1995,192.472,58.863,13.290
2019-06-25T15:48:52,42.805,6.029,4330,1995,192.401,58.842,13.291
2019-06-25T15:51:52,42.805,6.029,4330,1995,192.298,58.811,13.290
2019-06-25T15:54:52,42.805,6.029,4330,1995,192.296,58.809,13.290
2019-06-25T15:57:52,42.805,6.029,4330,1995,192.321,58.818,13.291
2019-06-25T16:00:52,42.805,6.029,4330,1995,192.289,58.810,13.292
2019-06-25T16:03:52,42.805,6.029,4330,1995,192.422,58.850,13.291
2019-06-25T16:06:52,42.805,6.029,4330,1995,192.442,58.855,13.291
2019-06-25T16:09:52,42.805,6.029,4330,1995,192.597,58.903,13.291
2019-06-25T16:12:52,42.805,6.029,4330,1995,192.484,58.868,13.291
2019-06-25T16:15:52,42.805,6.029,4330,1995,192.537,58.886,13.293
2019-06-25T16:18:52,42.805,6.029,4330,1995,192.527,58.882,13.292
2019-06-25T16:21:52,42.805,6.029,4330,1995,192.624,58.911,13.291
2019-06-25T16:24:52,42.805,6.029,4330,1995,192.516,58.878,13.291
2019-06-25T16:27:52,42.805,6.029,4330,1995,192.442,58.855,13.291
2019-06-25T16:30:52,42.805,6.029,4330,1995,192.364,58.831,13.290
2019-06-25T16:33:52,42.805,6.029,4330,1995,192.616,58.909,13.291
2019-06-25T16:36:52,42.805,6.029,4330,1995,192.783,58.960,13.291
2019-06-25T16:39:52,42.805,6.029,4330,1995,192.603,58.906,13.292
2019-06-25T16:42:52,42.805,6.029,4330,1995,192.478,58.866,13.291
2019-06-25T16:45:52,42.805,6.029,4330,1995,192.618,58.909,13.291
2019-06-25T16:48:52,42.805,6.029,4330,1995,192.571,58.895,13.291
2019-06-25T16:57:52,42.805,6.029,4330,1995,192.726,58.938,13.288
2019-06-25T17:00:52,42.805,6.029,4330,1995,192.808,58.965,13.289
2019-06-25T17:03:52,42.805,6.029,4330,1995,192.837,58.974,13.289
2019-06-25T17:06:52,42.805,6.029,4330,1995,192.687,58.929,13.290
2019-06-25T17:09:52,42.805,6.029,4330,1995,192.648,58.917,13.290
2019-06-25T17:12:52,42.805,6.029,4330,1995,192.731,58.943,13.290
2019-06-25T17:15:52,42.805,6.029,4330,1995,192.859,58.983,13.291
2019-06-25T17:18:52,42.805,6.029,4330,1995,192.778,58.958,13.291
2019-06-25T17:21:52,42.805,6.029,4330,1995,192.858,58.981,13.290
2019-06-25T17:24:52,42.805,6.029,4330,1995,192.971,59.017,13.291
2019-06-25T17:27:52,42.805,6.029,4330,1995,192.900,58.994,13.290
2019-06-25T17:30:52,42.805,6.029,4330,1995,192.845,58.978,13.291
2019-06-25T17:33:52,42.805,6.029,4330,1995,192.853,58.981,13.291
2019-06-25T17:36:52,42.805,6.029,4330,1995,192.925,59.002,13.290
2019-06-25T17:39:52,42.805,6.029,4330,1995,192.914,59.000,13.291
2019-06-25T17:42:52,42.805,6.029,4330,1995,192.810,58.968,13.291
2019-06-25T17:45:52,42.805,6.029,4330,1995,192.813,58.968,13.291
2019-06-25T17:48:52,42.805,6.029,4330,1995,192.856,58.982,13.291
2019-06-25T17:51:52,42.805,6.029,4330,1995,193.060,59.044,13.291
2019-06-25T17:54:52,42.805,6.029,4330,1995,192.960,59.014,13.291
2019-06-25T17:57:52,42.805,6.029,4330,1995,192.848,58.979,13.291
2019-06-25T18:00:52,42.805,6.029,4330,1995,192.506,58.876,13.292
2019-06-25T18:03:52,42.805,6.029,4330,1995,192.482,58.868,13.291
2019-06-25T18:06:52,42.805,6.029,4330,1995,192.725,58.942,13.291
2019-06-25T18:09:52,42.805,6.029,4330,1995,192.684,58.928,13.290
2019-06-25T18:12:52,42.805,6.029,4330,1995,193.005,59.026,13.290
2019-06-25T18:15:52,42.805,6.029,4330,1995,192.806,58.966,13.290
2019-06-25T18:18:52,42.805,6.029,4330,1995,192.749,58.948,13.290
2019-06-25T18:21:52,42.805,6.029,4330,1995,192.854,58.981,13.291
2019-06-25T18:24:52,42.805,6.029,4330,1995,192.721,58.939,13.290
2019-06-25T18:27:52,42.805,6.029,4330,1995,192.556,58.889,13.290
2019-06-25T18:30:52,42.805,6.029,4330,1995,192.741,58.945,13.289
2019-06-25T18:33:52,42.805,6.029,4330,1995,192.802,58.964,13.290
2019-06-25T18:36:52,42.805,6.029,4330,1995,192.792,58.960,13.289